Andrews AFB, MD

6:01 PM EST on December 07, 2016 (GMT -0500)
Andrews Air Force Base-Naf

Weather History for KADW - July, 2013

Change the Weather History Date:

Tuesday, July 16, 2013

  Actual Average Record
Temperature  
Mean Temperature 85 °F -  
Max Temperature 93 °F 83 °F 96 °F (1997)
Min Temperature 77 °F 64 °F 59 °F (2011)
Cooling Degree Days 20    
Growing Degree Days 35 (Base 50)    
Moisture  
Dew Point 73 °F    
Average Humidity 66    
Maximum Humidity 83    
Minimum Humidity 46    
Precipitation  
Precipitation 0.00 in - - ()
Sea Level Pressure  
Sea Level Pressure 30.22 in    
Wind  
Wind Speed 6 mph (North)    
Max Wind Speed 10 mph    
Max Gust Speed -    
Visibility 10 miles    
Events      
Averages and records for this station are not official NWS values.
T = Trace of Precipitation, MM = Missing Value Source: NWS Daily Summary

Daily Weather History Graph

Daily Weather History Graph

Search for Another Location

Airport or City:

Trip Planner

Search our weather history database for the weather conditions in past years. The results will help you decide how hot, cold, wet, or windy it might be!

Date:

Astronomy

Jul. 16, 2013 Rise Set
Actual Time 5:55 AM EDT 8:31 PM EDT
Civil Twilight 5:24 AM EDT 9:02 PM EDT
Nautical Twilight 4:46 AM EDT 9:40 PM EDT
Astronomical Twilight 4:02 AM EDT 10:23 PM EDT
Moon 2:11 PM EDT (7/16) 12:22 AM EDT (7/16)
Length of Visible Light 15h 37m
Length of Day
14h 35m
First Quarter, 56% of the Moon is Illuminated
Jul 16
First Quarter
Jul 22
Full
Jul 29
Last Quarter
Aug 6
New
Aug 14
First Quarter

Hourly Weather History & Observations

Time (EDT) Temp. Heat Index Dew Point Humidity Pressure Visibility Wind Dir Wind Speed Gust Speed Precip Events Conditions
12:58 AM 78.8 °F - 71.6 °F 78% 30.25 in 10.0 mi West 5.8 mph - N/A   Clear
1:58 AM 78.8 °F - 73.4 °F 83% 30.22 in 10.0 mi Calm Calm - N/A   Clear
2:58 AM 78.8 °F - 71.6 °F 78% 30.22 in 10.0 mi West 4.6 mph - N/A   Clear
4:58 AM 77.0 °F - 69.8 °F 78% 30.22 in 10.0 mi WNW 5.8 mph - N/A   Mostly Cloudy
5:58 AM 77.0 °F - 71.6 °F 83% 30.23 in 10.0 mi NW 4.6 mph - N/A   Scattered Clouds
6:55 AM 80.6 °F 85.4 °F 73.4 °F 79% 30.24 in 10.0 mi NNW 5.8 mph - N/A   Scattered Clouds
7:59 AM 84.2 °F 92.3 °F 75.2 °F 74% 30.24 in 10.0 mi North 9.2 mph - N/A   Scattered Clouds
8:02 AM 84.2 °F 92.3 °F 75.2 °F 74% 30.24 in 10.0 mi North 9.2 mph - N/A   Scattered Clouds
8:55 AM 84.2 °F 89.6 °F 71.6 °F 66% 30.25 in 10.0 mi North 6.9 mph - N/A   Mostly Cloudy
9:58 AM 87.8 °F 99.7 °F 77.0 °F 70% 30.25 in 10.0 mi NNE 8.1 mph - N/A   Scattered Clouds
10:59 AM 91.4 °F 102.5 °F 75.2 °F 59% 30.26 in 10.0 mi NNE 9.2 mph - N/A   Scattered Clouds
11:55 AM 89.6 °F 98.2 °F 73.4 °F 59% 30.25 in 10.0 mi NE 9.2 mph - N/A   Partly Cloudy
12:55 PM 91.4 °F 100.1 °F 73.4 °F 55% 30.24 in 10.0 mi NE 10.4 mph - N/A   Clear
1:15 PM 91.4 °F 100.1 °F 73.4 °F 55% 30.22 in 10.0 mi ENE 10.4 mph - N/A   Clear
1:56 PM 91.4 °F 98.4 °F 71.6 °F 52% 30.21 in 10.0 mi NE 8.1 mph - N/A   Partly Cloudy
2:55 PM 93.2 °F 100.5 °F 71.6 °F 49% 30.21 in 10.0 mi NNE 8.1 mph - N/A   Partly Cloudy
3:55 PM 93.2 °F 100.5 °F 71.6 °F 49% 30.20 in 10.0 mi North 5.8 mph - N/A   Scattered Clouds
4:55 PM 93.2 °F 100.5 °F 71.6 °F 49% 30.18 in 10.0 mi North 5.8 mph - N/A   Partly Cloudy
5:55 PM 91.4 °F 98.4 °F 71.6 °F 52% 30.18 in 10.0 mi Variable 3.5 mph - N/A   Partly Cloudy
6:58 PM 91.4 °F 100.1 °F 73.4 °F 55% 30.18 in 10.0 mi NE 6.9 mph - N/A   Partly Cloudy
7:57 PM 89.6 °F 92.2 °F 66.2 °F 46% 30.19 in 10.0 mi NNE 3.5 mph - N/A   Scattered Clouds
8:58 PM 84.2 °F 90.9 °F 73.4 °F 70% 30.20 in 10.0 mi North 5.8 mph - N/A   Partly Cloudy
9:58 PM 80.6 °F 84.6 °F 71.6 °F 74% 30.22 in 10.0 mi North 4.6 mph - N/A   Clear
10:58 PM 80.6 °F 85.4 °F 73.4 °F 79% 30.23 in 10.0 mi Calm Calm - N/A   Clear
11:58 PM 78.8 °F - 71.6 °F 78% 30.22 in 10.0 mi Calm Calm - N/A   Clear